Total_Precipitation_Accumulation
1.18 1.13 1.76 2.52 2.62 1.78 1.36 1.02 0.71 0.70 0.59 0.45 0.31 0.27 0.37 0.66 0.94 1.20 1.05 0.96 0.63 0.53 0.55 0.78 1.02 1.03 0.91 0.78 0.73 0.72 0.64 0.52 0.49 0.51 0.49 0.43 0.39 0.38 0.38 0.38 0.35 0.34 0.33 0.34 0.40 0.43 0.37 0.37 0.47
0.83 1.39 2.25 2.94 2.30 1.49 1.34 0.97 0.78 0.67 0.52 0.39 0.30 0.27 0.27 0.25 0.22 0.48 0.99 1.12 0.67 0.47 0.53 0.68 1.00 1.03 0.93 0.84 0.79 0.87 0.79 0.64 0.58 0.55 0.50 0.44 0.39 0.42 0.49 0.49 0.41 0.38 0.37 0.35 0.39 0.46 0.40 0.39 0.46
1.13 1.99 2.77 2.72 1.73 1.35 1.29 1.01 0.79 0.55 0.39 0.33 0.31 0.25 0.25 0.31 0.36 0.67 0.98 0.82 0.61 0.51 0.56 0.87 1.05 0.93 0.88 0.87 0.96 1.08 0.98 0.87 0.75 0.63 0.55 0.51 0.48 0.48 0.55 0.50 0.49 0.48 0.45 0.43 0.49 0.54 0.47 0.41 0.40
1.55 2.41 2.75 2.25 1.58 1.21 1.02 0.97 0.79 0.55 0.36 0.22 0.22 0.26 0.25 0.30 0.43 0.65 0.73 0.59 0.51 0.56 0.63 0.82 0.94 0.90 0.88 0.91 1.00 1.05 1.07 1.08 0.88 0.73 0.67 0.66 0.63 0.62 0.64 0.64 0.58 0.58 0.55 0.56 0.56 0.55 0.53 0.48 0.46
1.99 2.50 2.43 2.11 1.66 1.27 0.97 0.82 0.73 0.56 0.39 0.24 0.20 0.34 0.41 0.50 0.56 0.62 0.66 0.55 0.48 0.51 0.58 0.66 0.83 0.80 0.81 0.89 0.99 0.98 1.05 1.12 0.98 0.76 0.76 0.78 0.71 0.71 0.74 0.76 0.66 0.64 0.61 0.61 0.63 0.58 0.56 0.54 0.53
2.30 2.31 2.24 2.09 1.80 1.42 1.11 0.73 0.59 0.51 0.35 0.27 0.24 0.39 0.57 0.64 0.70 0.78 0.75 0.79 0.70 0.62 0.58 0.61 0.74 0.78 0.79 0.88 1.02 0.94 0.97 1.06 1.00 0.89 0.83 0.77 0.77 0.81 0.82 0.78 0.73 0.67 0.67 0.67 0.68 0.67 0.61 0.58 0.57
2.17 2.06 1.97 1.57 1.57 1.70 1.24 0.66 0.60 0.56 0.49 0.41 0.25 0.40 0.58 0.61 0.57 0.67 0.69 0.78 0.93 0.98 0.87 0.69 0.63 0.66 0.72 0.86 1.00 1.00 0.98 0.99 0.95 1.00 0.95 0.92 0.89 0.84 0.78 0.76 0.75 0.74 0.74 0.74 0.71 0.67 0.64 0.62 0.61
1.80 1.71 1.57 1.47 1.52 1.58 1.03 0.55 0.43 0.47 0.43 0.30 0.28 0.44 0.59 0.47 0.42 0.51 0.70 0.91 0.98 1.03 0.98 0.85 0.75 0.74 0.76 0.73 0.89 1.08 1.14 1.09 0.99 0.98 0.97 0.97 0.91 0.82 0.77 0.71 0.72 0.76 0.77 0.81 0.82 0.74 0.72 0.69 0.64
1.54 1.62 1.67 1.77 1.64 1.31 0.76 0.55 0.39 0.32 0.28 0.25 0.24 0.29 0.37 0.32 0.40 0.52 0.64 0.74 0.86 0.86 0.87 0.86 0.88 0.90 0.96 0.96 0.94 1.16 1.24 1.16 0.97 0.87 0.91 0.92 0.78 0.80 0.82 0.71 0.83 0.82 0.87 0.92 0.91 0.86 0.84 0.74 0.65
1.51 1.57 1.56 1.29 1.01 0.82 0.65 0.53 0.45 0.46 0.46 0.34 0.30 0.29 0.27 0.30 0.39 0.48 0.55 0.61 0.66 0.70 0.69 0.68 0.71 0.79 0.90 0.98 1.31 1.52 1.31 1.20 0.93 0.92 0.81 0.87 0.94 1.02 0.85 0.79 0.95 0.98 1.02 0.99 0.98 1.01 0.94 0.76 0.58
1.23 1.37 1.10 0.93 0.74 0.54 0.53 0.53 0.42 0.46 0.48 0.33 0.33 0.34 0.33 0.35 0.40 0.45 0.48 0.48 0.52 0.53 0.50 0.50 0.48 0.50 0.59 0.79 1.13 1.42 1.53 1.49 1.41 1.16 0.93 0.94 0.82 0.72 0.67 0.69 0.80 0.87 0.95 0.90 0.93 0.94 0.79 0.70 0.64
1.18 1.00 0.78 0.76 0.55 0.53 0.50 0.44 0.40 0.36 0.32 0.21 0.28 0.31 0.33 0.36 0.36 0.37 0.43 0.45 0.49 0.51 0.50 0.46 0.45 0.42 0.44 0.53 0.70 0.90 1.04 1.13 1.15 0.99 0.88 0.95 0.84 0.74 0.75 0.75 0.75 0.75 0.83 0.92 0.95 0.90 0.77 0.65 0.58
1.14 1.01 0.70 0.57 0.50 0.46 0.39 0.38 0.37 0.34 0.29 0.23 0.27 0.36 0.42 0.44 0.40 0.40 0.43 0.46 0.49 0.55 0.61 0.58 0.49 0.45 0.44 0.47 0.55 0.63 0.78 0.87 0.89 0.92 0.86 0.90 0.90 0.87 0.84 0.77 0.77 0.71 0.77 0.87 0.94 0.89 0.80 0.73 0.66
0.89 0.90 0.88 0.76 0.58 0.47 0.41 0.36 0.32 0.32 0.29 0.31 0.38 0.44 0.47 0.54 0.51 0.51 0.51 0.52 0.51 0.55 0.62 0.67 0.59 0.55 0.50 0.47 0.51 0.55 0.65 0.73 0.77 0.76 0.75 0.85 0.94 0.93 0.90 0.85 0.86 0.83 0.84 0.96 0.94 0.85 0.88 0.85 0.74
0.80 0.95 0.88 0.75 0.65 0.56 0.51 0.52 0.37 0.31 0.33 0.38 0.48 0.45 0.45 0.52 0.54 0.56 0.55 0.52 0.52 0.55 0.58 0.61 0.63 0.63 0.62 0.60 0.58 0.57 0.64 0.74 0.76 0.73 0.68 0.69 0.78 0.83 0.86 0.87 0.87 0.91 0.99 1.04 1.06 0.90 0.89 0.83 0.73
0.92 1.11 1.16 0.78 0.71 0.65 0.68 0.66 0.39 0.34 0.35 0.35 0.38 0.38 0.39 0.42 0.46 0.50 0.52 0.48 0.47 0.47 0.49 0.53 0.55 0.61 0.68 0.71 0.72 0.73 0.73 0.80 0.77 0.76 0.69 0.63 0.68 0.77 0.90 0.90 0.88 0.91 1.03 1.10 1.14 1.04 0.96 0.88 0.83
0.93 0.93 0.90 0.74 0.62 0.59 0.53 0.49 0.37 0.36 0.35 0.30 0.31 0.29 0.29 0.31 0.33 0.37 0.40 0.42 0.44 0.42 0.43 0.45 0.50 0.52 0.64 0.73 0.76 0.84 0.86 0.87 0.85 0.84 0.74 0.71 0.76 0.83 1.00 1.10 1.11 1.11 1.12 1.10 1.05 1.09 1.04 0.98 0.96
0.74 0.61 0.56 0.54 0.48 0.43 0.38 0.34 0.29 0.28 0.27 0.24 0.23 0.23 0.23 0.25 0.25 0.28 0.30 0.31 0.32 0.34 0.36 0.39 0.45 0.48 0.55 0.70 0.82 0.97 1.09 1.05 1.07 1.01 0.89 0.91 1.05 1.18 1.32 1.32 1.39 1.46 1.33 1.27 1.20 1.21 1.15 1.06 1.07
0.50 0.46 0.44 0.42 0.35 0.33 0.31 0.27 0.25 0.23 0.23 0.21 0.18 0.18 0.18 0.19 0.17 0.18 0.22 0.23 0.24 0.23 0.26 0.32 0.36 0.44 0.53 0.61 0.75 0.96 1.24 1.35 1.44 1.40 1.22 1.16 1.28 1.52 1.72 1.69 1.73 1.75 1.61 1.56 1.61 1.80 1.73 1.46 1.24
0.50 0.51 0.46 0.43 0.29 0.26 0.27 0.23 0.20 0.19 0.22 0.21 0.17 0.16 0.14 0.13 0.11 0.10 0.12 0.15 0.16 0.16 0.18 0.24 0.32 0.42 0.51 0.60 0.77 0.94 1.08 1.08 1.26 1.41 1.39 1.30 1.29 1.44 1.57 1.82 1.91 1.83 1.84 1.95 1.98 2.27 2.39 1.97 1.56
0.49 0.45 0.45 0.45 0.30 0.22 0.22 0.23 0.16 0.15 0.18 0.18 0.17 0.15 0.14 0.13 0.10 0.09 0.09 0.10 0.10 0.12 0.13 0.17 0.24 0.35 0.48 0.64 0.87 1.09 1.27 1.36 1.42 1.35 1.43 1.44 1.37 1.41 1.51 1.66 1.82 1.82 1.88 1.97 2.08 2.40 2.82 2.57 2.07
0.43 0.28 0.25 0.28 0.33 0.30 0.28 0.31 0.19 0.19 0.23 0.24 0.23 0.19 0.17 0.15 0.11 0.10 0.09 0.10 0.10 0.10 0.10 0.14 0.23 0.38 0.59 0.80 1.06 1.31 1.51 1.55 1.44 1.48 1.51 1.39 1.33 1.30 1.37 1.51 1.64 1.76 1.78 1.91 2.00 2.11 2.56 2.87 2.55
0.30 0.22 0.16 0.20 0.25 0.21 0.20 0.26 0.21 0.25 0.33 0.34 0.31 0.27 0.21 0.18 0.15 0.14 0.13 0.16 0.17 0.17 0.18 0.25 0.45 0.70 0.96 1.17 1.43 1.72 1.72 1.61 1.51 1.51 1.47 1.42 1.43 1.40 1.39 1.53 1.60 1.61 1.66 1.76 2.09 2.34 2.59 2.77 2.70
0.22 0.19 0.18 0.20 0.23 0.19 0.14 0.21 0.28 0.30 0.34 0.38 0.37 0.31 0.24 0.20 0.23 0.28 0.33 0.39 0.44 0.47 0.61 0.81 1.08 1.27 1.36 1.48 1.64 1.76 1.73 1.74 1.68 1.49 1.40 1.39 1.43 1.49 1.53 1.59 1.59 1.56 1.59 1.69 1.91 2.18 2.39 2.71 2.87
0.16 0.18 0.27 0.30 0.29 0.23 0.16 0.30 0.39 0.35 0.30 0.30 0.31 0.26 0.20 0.24 0.34 0.46 0.61 0.74 0.85 0.97 1.11 1.24 1.43 1.59 1.54 1.51 1.55 1.59 1.60 1.59 1.57 1.51 1.41 1.35 1.36 1.37 1.41 1.52 1.64 1.72 1.74 1.85 2.02 2.16 2.07 2.29 2.67
0.13 0.19 0.36 0.44 0.34 0.29 0.29 0.49 0.53 0.42 0.31 0.23 0.18 0.17 0.25 0.38 0.52 0.63 0.72 0.83 1.00 1.14 1.20 1.21 1.32 1.43 1.40 1.38 1.34 1.31 1.37 1.40 1.35 1.27 1.25 1.28 1.35 1.33 1.27 1.32 1.43 1.57 1.73 1.78 1.83 1.84 1.81 1.94 2.18
0.11 0.14 0.20 0.33 0.27 0.26 0.38 0.64 0.58 0.38 0.32 0.26 0.22 0.26 0.39 0.58 0.80 0.94 1.05 1.17 1.22 1.25 1.31 1.23 1.23 1.28 1.29 1.23 1.14 1.13 1.18 1.23 1.25 1.19 1.20 1.18 1.17 1.09 1.02 1.02 1.07 1.15 1.23 1.31 1.46 1.55 1.66 1.71 1.83
0.13 0.19 0.28 0.46 0.51 0.49 0.56 0.67 0.59 0.47 0.43 0.45 0.52 0.62 0.68 0.78 1.04 1.33 1.58 1.75 1.57 1.31 1.20 1.15 1.08 1.09 1.18 1.16 1.09 1.04 1.12 1.13 1.11 1.14 1.11 1.10 1.10 1.01 0.94 0.90 0.86 0.83 0.81 0.85 1.03 1.22 1.34 1.45 1.61
0.17 0.28 0.36 0.49 0.59 0.73 0.90 1.00 0.84 0.86 0.88 0.96 1.06 1.10 1.11 1.21 1.19 1.35 1.54 1.71 1.61 1.30 1.07 1.08 1.09 1.05 1.03 1.03 1.05 1.04 1.01 0.91 0.90 0.95 0.96 0.95 0.95 0.99 0.98 0.89 0.82 0.89 0.89 0.85 0.91 0.96 1.02 1.10 1.25
0.29 0.40 0.53 0.71 0.65 0.70 0.91 1.08 0.95 0.94 0.96 1.05 1.23 1.31 1.29 1.20 1.10 1.09 1.14 1.21 1.23 1.08 0.90 0.86 1.00 1.05 0.99 0.96 0.98 0.97 0.88 0.82 0.79 0.77 0.74 0.66 0.64 0.67 0.76 0.84 0.79 0.78 0.80 0.82 0.88 0.90 0.94 0.97 1.05